ASRTU-1 (AO-123)

Last updated on Sat Aug 15 2026 00:03:14 GMT+0000 (Coordinated Universal Time)

1 61781U 24199AY 26226.59885514 .00004703 00000+0 13414-3 0 9990 2 61781 97.2909 94.7486 0015471 98.0883 262.2117 15.36429059142892
UTC large
Height (km)
Speed (km/s)
/
Latitude / Longitude
Inclination (degrees)
Orbital Period (minutes)
Azimuth
Elevation
Range (km)
Doppler Factor

Next 0 passes for location: London (51.5072 / 0.1276)

No passes found over London.
ASRTU-1 (AO-123)